Hourly Data Report for December 02, 2018

TORONTO CITY
ONTARIO
Current Station Operator: ECCC - MSC

43°40'00.000" N
79°24'00.000" W
112.50 m
6158355
71508
XTO

Download Data

Hourly Data (December 2018)
Hourly Data Report for December 2, 2018
TIME
LST
Temp Definition
°C
Dew Point Definition
°C
Rel Hum Definition
%
Precip. Amount Definition
mm

Wind Dir Definition
10's deg

Wind Spd Definition
km/h
Visibility Definition
km
Stn Press Definition
kPa
Hmdx Definition


Wind Chill Definition


Weather Definition


00:00 3.6 2.6 93 1.2 LegendMM LegendMM   99.44     LegendNANA
01:00 3.8 2.9 94 0.4 LegendMM LegendMM   99.32     LegendNANA
02:00 4.0 3.1 94 0.2 LegendMM LegendMM   99.20     LegendNANA
03:00 4.2 3.3 94 0.0 LegendMM LegendMM   99.10     LegendNANA
04:00 4.5 3.6 94 0.0 LegendMM LegendMM   98.98     LegendNANA
05:00 4.7 3.7 94 2.3 LegendMM LegendMM   98.86     LegendNANA
06:00 4.8 3.8 93 1.2 LegendMM LegendMM   98.77     LegendNANA
07:00 5.0 4.1 94 1.3 LegendMM LegendMM   98.71     LegendNANA
08:00 5.3 4.4 94 0.2 LegendMM LegendMM   98.62     LegendNANA
09:00 5.7 4.7 93 0.0 LegendMM LegendMM   98.57     LegendNANA
10:00 6.0 4.8 92 0.0 LegendMM LegendMM   98.55     LegendNANA
11:00 6.5 4.9 90 0.0 LegendMM LegendMM   98.51     LegendNANA
12:00 7.3 5.5 88 0.0 LegendMM LegendMM   98.43     LegendNANA
13:00 8.6 6.1 85 0.0 LegendMM LegendMM   98.37     LegendNANA
14:00 9.8 6.6 80 0.0 LegendMM LegendMM   98.33     LegendNANA
15:00 10.7 7.6 81 0.0 LegendMM LegendMM   98.29     LegendNANA
16:00 10.4 7.1 80 0.0 LegendMM LegendMM   98.28     LegendNANA
17:00 9.3 6.9 85 0.0 LegendMM LegendMM   98.24     LegendNANA
18:00 9.6 7.4 86 0.0 LegendMM LegendMM   98.22     LegendNANA
19:00 8.9 6.5 85 0.0 LegendMM LegendMM   98.18     LegendNANA
20:00 9.4 7.2 86 2.8 LegendMM LegendMM   98.28     LegendNANA
21:00 9.4 7.6 89 3.0 LegendMM LegendMM   98.23     LegendNANA
22:00 8.1 6.5 90 0.0 LegendMM LegendMM   98.28     LegendNANA
23:00 7.8 6.4 91 0.0 LegendMM LegendMM   98.31     LegendNANA

Notes on Data Quality.

Legend

  • E = Estimated
  • M = Missing
  • NA = Not Available*
  • [empty] = Indicates an unobserved value
Date modified: